K3HW Weather Reports


time (UTC)temp
F
wind
direction
speed
knots
gust
knots
rain 1hr
in
rain 24hr
in
rain mn
in
humidity
%
barometer
mb
20260504175333 70 29 4.3 6.1 0.00 0.00 0.00 37 1015.1
20260504174832 70 33 1.7 3.5 0.00 0.00 0.00 40 1015.1
20260504174329 70 42 1.7 1.7 0.00 0.00 0.00 39 1015.3
20260504173826 70 102 2.6 3.5 0.00 0.00 0.00 38 1015.4
20260504173323 70 347 2.6 2.6 0.00 0.00 0.00 37 1015.1
20260504172820 69 280 3.5 3.5 0.00 0.00 0.00 41 1015.3
20260504172316 69 270 3.5 5.2 0.00 0.00 0.00 38 1015.4
20260504171812 70 114 0.9 1.7 0.00 0.00 0.00 39 1015.3
20260504171309 69 144 3.5 6.1 0.00 0.00 0.00 38 1015.6
20260504170807 69 279 2.6 3.5 0.00 0.00 0.00 37 1015.5
20260504170303 69 323 1.7 1.7 0.00 0.00 0.00 37 1015.5
20260504160222 69 143 3.5 5.2 0.00 0.00 0.00 37 1016.4
20260504150653 66 304 2.6 2.6 0.00 0.00 0.00 43 1016.7
20260504150149 65 255 2.6 2.6 0.00 0.00 0.00 43 1016.8
20260504141119 62 350 1.7 1.7 0.00 0.00 0.00 55 1016.6
20260504140615 62 333 0.9 2.6 0.00 0.00 0.00 55 1016.8
20260504140111 61 135 2.6 3.5 0.00 0.00 0.00 54 1016.9
20260504130539 58 44 1.7 1.7 0.00 0.00 0.00 59 1017.3
20260504110426 41 41 0.0 0.0 0.00 0.00 0.00 83 1017.6
20260504100343 35 38 0.0 0.0 0.00 0.00 0.00 86 1017.6
20260504081737 37 39 0.0 0.0 0.00 0.00 0.00 83 1017.6
20260504081233 37 39 0.0 0.0 0.00 0.00 0.00 83 1017.7
20260504080730 37 44 0.0 0.0 0.00 0.00 0.00 83 1017.7
20260504080226 37 44 0.0 0.0 0.00 0.00 0.00 83 1017.6
20260504070154 38 42 0.0 0.0 0.00 0.00 0.00 81 1017.7
20260504060114 40 40 0.0 0.0 0.00 0.00 0.00 76 1017.5
20260504050542 42 38 0.0 0.0 0.00 0.00 0.00 71 1017.6
20260504045536 43 38 0.0 0.0 0.00 0.00 0.00 68 1017.6
20260504045032 43 39 0.0 0.0 0.00 0.00 0.00 66 1017.6
20260504044529 43 39 0.0 0.0 0.00 0.00 0.00 66 1017.7
20260504044026 43 39 0.0 0.0 0.00 0.00 0.00 66 1017.6
20260504043523 43 39 0.0 0.0 0.00 0.00 0.00 66 1017.6
20260504043021 43 39 0.0 0.0 0.00 0.00 0.00 66 1017.6
20260504042517 43 39 0.0 0.0 0.00 0.00 0.00 66 1017.6
20260504042014 44 39 0.0 0.0 0.00 0.00 0.00 66 1017.4
20260504041510 44 39 0.0 0.0 0.00 0.00 0.00 66 1017.4
20260504041006 43 39 0.0 0.0 0.00 0.00 0.00 66 1017.3
20260504040504 43 39 0.0 0.0 0.00 0.00 0.00 67 1017.3
20260504040000 43 39 0.0 0.0 0.00 0.00 0.00 68 1017.4
20260504035457 44 39 0.0 0.0 0.00 0.00 0.00 67 1017.1
20260504034953 44 39 0.0 0.0 0.00 0.00 0.00 66 1017.2
20260504034451 44 38 0.0 0.0 0.00 0.00 0.00 66 1017.1
20260504033948 44 37 0.0 0.0 0.00 0.00 0.00 66 1017.1
20260504033446 44 37 0.0 0.0 0.00 0.00 0.00 66 1017.2
20260504032943 44 37 0.0 0.0 0.00 0.00 0.00 66 1017.0
20260504032440 44 37 0.0 0.0 0.00 0.00 0.00 66 1017.1
20260504031937 44 37 0.0 0.0 0.00 0.00 0.00 65 1017.0
20260504031434 45 37 0.0 0.0 0.00 0.00 0.00 64 1017.0
20260504030930 45 37 0.0 0.0 0.00 0.00 0.00 64 1016.9
20260504030427 45 37 0.0 0.0 0.00 0.00 0.00 64 1016.9
20260504025923 45 37 0.0 0.0 0.00 0.00 0.00 63 1017.0
20260504025420 45 40 0.0 0.0 0.00 0.00 0.00 63 1017.0
20260504024917 45 40 0.0 0.0 0.00 0.00 0.00 63 1017.0
20260504024414 45 40 0.0 0.0 0.00 0.00 0.00 63 1017.1
20260504023911 45 40 0.0 0.0 0.00 0.00 0.00 63 1017.2
20260504023408 46 41 0.0 0.0 0.00 0.00 0.00 62 1017.1
20260504022903 46 41 0.0 0.0 0.00 0.00 0.00 62 1017.1
20260504022400 46 41 0.0 0.0 0.00 0.00 0.00 62 1017.1
20260504021856 46 42 0.0 0.0 0.00 0.00 0.00 61 1017.2
20260504021354 47 39 0.0 0.0 0.00 0.00 0.00 61 1017.2
20260504020851 47 40 0.0 0.0 0.00 0.00 0.00 60 1017.1
20260504020347 47 40 0.0 0.0 0.00 0.00 0.00 60 1017.1
20260504015844 48 41 0.0 0.0 0.00 0.00 0.00 58 1017.0
20260504015340 48 41 0.0 0.0 0.00 0.00 0.00 57 1017.1
20260504014836 48 41 0.0 0.0 0.00 0.00 0.00 57 1017.1
20260504014332 48 41 0.0 0.0 0.00 0.00 0.00 57 1016.9
20260504013830 49 41 0.0 0.0 0.00 0.00 0.00 56 1016.9
20260504013328 49 41 0.0 0.0 0.00 0.00 0.00 56 1016.8
20260504012824 49 42 0.0 0.0 0.00 0.00 0.00 55 1016.9
20260504012322 50 41 0.0 0.0 0.00 0.00 0.00 54 1016.8
20260504011819 50 41 0.0 0.0 0.00 0.00 0.00 54 1016.6
20260504011316 50 40 0.0 0.0 0.00 0.00 0.00 53 1016.6
20260504010811 51 40 0.0 0.0 0.00 0.00 0.00 53 1016.7
20260504010307 51 39 0.0 0.0 0.00 0.00 0.00 51 1016.5
20260504005804 51 38 0.0 0.0 0.00 0.00 0.00 51 1016.5
20260504005301 52 38 0.0 0.0 0.00 0.00 0.00 51 1016.5
20260504004759 52 37 0.0 0.0 0.00 0.00 0.00 48 1016.4
20260504004256 53 37 0.0 0.0 0.00 0.00 0.00 47 1016.4
20260504003752 53 37 0.0 0.0 0.00 0.00 0.00 45 1016.3
20260504003249 54 36 0.0 0.0 0.00 0.00 0.00 45 1016.3
20260504002746 55 47 0.0 0.0 0.00 0.00 0.00 45 1016.1
20260504002243 55 36 0.0 0.0 0.00 0.00 0.00 42 1016.0
20260504001741 56 25 0.0 0.0 0.00 0.00 0.00 41 1016.1
20260504001237 56 20 0.0 0.0 0.00 0.00 0.00 40 1016.1
20260504000734 56 17 0.0 0.9 0.00 0.00 0.00 40 1016.0
20260504000233 57 356 1.7 2.6 0.00 0.00 0.00 39 1015.7
20260503235729 57 23 0.9 1.7 0.00 0.00 0.00 39 1015.7
20260503235226 58 29 0.9 1.7 0.00 0.00 0.00 40 1015.9
20260503234724 58 6 0.0 0.9 0.00 0.00 0.00 37 1015.8
20260503234222 58 12 0.9 0.9 0.00 0.00 0.00 39 1015.8
20260503233718 59 19 0.9 1.7 0.00 0.00 0.00 36 1015.7
20260503233214 59 14 0.9 0.9 0.00 0.00 0.00 36 1015.6
20260503232711 59 24 0.9 1.7 0.00 0.00 0.00 35 1015.7
20260503232208 59 39 0.9 1.7 0.00 0.00 0.00 35 1015.6
20260503231707 60 292 3.5 5.2 0.00 0.00 0.00 35 1015.7
20260503231203 60 34 1.7 1.7 0.00 0.00 0.00 35 1015.7
20260503230659 60 294 2.6 5.2 0.00 0.00 0.00 34 1015.6
20260503230156 60 27 0.0 0.9 0.00 0.00 0.00 36 1015.4
20260503225654 60 315 1.7 2.6 0.00 0.00 0.00 34 1015.5
20260503225154 60 270 4.3 5.2 0.00 0.00 0.00 34 1015.3
20260503224651 61 15 2.6 2.6 0.00 0.00 0.00 34 1015.7
20260503224149 60 355 2.6 3.5 0.00 0.00 0.00 34 1015.4
20260503223647 61 24 1.7 2.6 0.00 0.00 0.00 34 1015.8
20260503223143 61 43 0.9 1.7 0.00 0.00 0.00 34 1015.6
20260503222640 60 318 5.2 7.0 0.00 0.00 0.00 33 1015.6
20260503222138 61 310 3.5 5.2 0.00 0.00 0.00 34 1015.6
20260503221636 62 347 1.7 3.5 0.00 0.00 0.00 33 1015.5
20260503221133 62 356 3.5 5.2 0.00 0.00 0.00 34 1015.3
20260503220630 62 25 0.9 0.9 0.00 0.00 0.00 32 1015.5
20260503220126 63 289 1.7 2.6 0.00 0.00 0.00 33 1015.4
20260503215624 62 302 3.5 5.2 0.00 0.00 0.00 32 1015.6
20260503215120 62 37 2.6 3.5 0.00 0.00 0.00 31 1015.4
20260503214619 62 315 3.5 7.0 0.00 0.00 0.00 31 1015.5
20260503214115 62 292 1.7 3.5 0.00 0.00 0.00 31 1015.2
20260503213614 61 27 1.7 2.6 0.00 0.00 0.00 31 1015.4
20260503213110 62 317 6.1 7.8 0.00 0.00 0.00 31 1015.4
20260503212608 62 277 6.1 7.8 0.00 0.00 0.00 30 1015.4
20260503212105 61 329 2.6 2.6 0.00 0.00 0.00 32 1015.5
20260503211602 61 13 0.9 0.9 0.00 0.00 0.00 32 1015.3
20260503211057 61 276 5.2 7.0 0.00 0.00 0.00 31 1015.5
20260503210554 60 359 1.7 2.6 0.00 0.00 0.00 33 1015.5
20260503210050 60 281 3.5 5.2 0.00 0.00 0.00 32 1015.5
20260503205547 60 36 4.3 5.2 0.00 0.00 0.00 32 1015.4
20260503205043 60 357 2.6 5.2 0.00 0.00 0.00 31 1015.6
20260503204540 60 250 4.3 6.1 0.00 0.00 0.00 34 1015.7
20260503204038 61 322 2.6 3.5 0.00 0.00 0.00 32 1015.6
20260503203535 60 337 6.1 8.7 0.00 0.00 0.00 33 1015.8
20260503203032 60 29 2.6 2.6 0.00 0.00 0.00 35 1015.6
20260503202529 60 332 3.5 6.1 0.00 0.00 0.00 35 1015.6
20260503202027 59 310 2.6 3.5 0.00 0.00 0.00 35 1016.0
20260503201525 60 16 2.6 3.5 0.00 0.00 0.00 34 1015.8
20260503201022 59 307 3.5 5.2 0.00 0.00 0.00 34 1016.0
20260503200518 60 346 1.7 2.6 0.00 0.00 0.00 36 1015.8
20260503200015 60 39 2.6 3.5 0.00 0.00 0.00 36 1015.8
20260503195513 60 355 2.6 2.6 0.00 0.00 0.00 35 1016.0
20260503195009 59 269 4.3 7.0 0.00 0.00 0.00 37 1016.1
20260503194506 59 22 1.7 2.6 0.00 0.00 0.00 33 1015.9
20260503194006 59 349 2.6 3.5 0.00 0.00 0.00 34 1016.2
20260503193503 58 266 3.5 7.0 0.00 0.00 0.00 37 1016.3
20260503192958 58 50 7.0 12.2 0.00 0.00 0.00 36 1016.2
20260503192455 58 353 4.3 7.0 0.00 0.00 0.00 34 1016.3
20260503191950 59 336 2.6 3.5 0.00 0.00 0.00 38 1016.3
20260503191448 58 288 4.3 6.1 0.00 0.00 0.00 36 1016.3
20260503190944 58 27 2.6 2.6 0.00 0.00 0.00 35 1016.1
20260503190442 58 316 6.1 7.8 0.00 0.00 0.00 35 1016.3
20260503185939 58 354 3.5 5.2 0.00 0.00 0.00 36 1016.3
20260503185435 57 333 7.8 9.6 0.00 0.00 0.00 36 1016.4
20260503184934 57 348 5.2 7.8 0.00 0.00 0.00 36 1016.5
20260503184431 57 262 7.8 12.2 0.00 0.00 0.00 35 1016.3
20260503183927 57 335 3.5 5.2 0.00 0.00 0.00 36 1016.7
20260503183424 57 261 4.3 7.0 0.00 0.00 0.00 34 1016.6
20260503182921 57 243 7.0 12.2 0.00 0.00 0.00 35 1016.7
20260503182420 57 330 3.5 3.5 0.00 0.00 0.00 35 1016.6
20260503181917 57 262 7.8 8.7 0.00 0.00 0.00 34 1016.6
20260503181414 57 285 7.8 9.6 0.00 0.00 0.00 35 1016.7
20260503180910 56 5 4.3 8.7 0.00 0.00 0.00 37 1016.9
20260503180408 55 72 7.8 11.3 0.00 0.00 0.00 36 1016.6
20260503175904 56 33 3.5 5.2 0.00 0.00 0.00 36 1016.7